Theta_e
315 315 314 314 314 316 316 316 316 316 316 314 315 317 317 316 314 312 313 316 318 317 316 316 316 315 314 316 317 318 317 316 316 315 315 313 313 314 315 314 315 316 314 314 314 314 314 316 317 315 316 318 322 325 324 324 327 338 343 330 330 332 321 319 318 317 319 316 315 314 315 316 314 314 314 313 310 309 307 306 305 304 304 303 303 302 302 302
317 317 316 315 315 316 317 317 317 317 316 316 316 318 319 318 316 314 313 316 318 318 316 315 316 315 315 317 318 319 320 319 318 315 314 314 313 315 316 316 315 315 314 314 314 313 314 315 314 315 318 320 324 324 323 325 326 332 333 324 332 334 320 318 316 315 317 315 316 315 315 316 314 313 314 314 310 309 307 306 304 304 303 303 302 302 302 301
319 318 317 317 316 317 318 318 318 317 317 317 317 318 320 319 318 315 313 315 318 318 316 316 316 315 316 317 319 320 319 322 322 317 316 315 315 316 316 316 315 314 314 314 314 314 314 314 313 315 319 320 325 326 324 325 324 328 327 325 335 331 319 319 315 315 316 316 317 316 315 314 313 313 313 311 309 308 307 306 304 303 303 303 302 301 301 301
319 319 319 318 317 318 319 319 318 317 317 317 317 318 319 320 320 317 313 314 317 318 316 316 316 315 316 316 318 317 318 325 324 317 316 315 316 316 315 314 314 315 315 315 316 316 315 314 312 314 319 323 327 326 322 323 323 324 322 326 334 324 317 319 315 316 317 316 316 315 316 314 312 313 312 312 312 308 305 305 303 303 302 302 302 300 300 300
320 320 320 319 318 319 320 320 320 318 318 317 318 318 319 319 320 319 315 314 316 318 316 316 316 316 316 316 316 316 321 328 322 315 315 316 315 314 313 312 314 316 315 316 316 316 316 314 314 318 319 323 326 323 321 321 320 321 321 323 324 317 316 317 316 318 317 316 317 315 315 313 312 311 310 313 313 307 304 303 303 302 301 301 301 300 299 299
321 321 320 320 319 319 320 321 321 320 319 319 318 318 319 319 320 320 317 314 316 318 317 316 316 316 316 316 314 316 325 326 318 315 315 315 314 312 312 312 314 315 315 316 315 315 317 316 317 319 318 318 321 319 319 320 318 318 320 319 317 316 316 316 315 318 318 316 316 314 314 313 311 309 307 308 307 305 303 302 301 301 300 300 299 299 300 299
321 321 321 320 320 319 320 322 322 321 320 320 320 320 319 320 320 321 318 314 315 317 318 316 316 317 317 317 317 322 330 325 315 314 314 314 314 311 312 312 312 315 316 315 315 316 318 318 318 317 317 319 319 317 318 320 318 317 321 320 316 316 316 317 315 316 317 315 314 313 312 312 313 311 306 304 304 303 302 301 300 300 299 299 299 299 299 298
321 321 320 320 320 319 320 322 323 323 322 322 322 321 320 321 321 321 319 315 315 317 318 316 315 318 318 319 325 331 332 323 314 313 314 314 313 312 312 311 311 314 315 315 314 316 318 318 318 317 318 319 317 317 318 317 318 319 322 320 316 317 317 318 316 315 316 314 314 315 312 312 313 310 305 304 304 303 302 300 299 299 299 299 299 299 298 297
320 320 320 320 320 320 320 322 324 324 323 323 323 323 322 322 322 321 320 316 315 316 318 316 315 317 316 318 326 329 323 317 313 312 313 313 313 313 312 311 311 312 315 317 314 314 318 317 319 319 317 319 317 318 317 315 318 319 320 318 316 317 316 317 315 315 316 313 313 314 312 310 310 309 306 304 303 302 302 301 300 299 299 299 299 298 296 296
319 320 320 319 320 319 320 321 324 324 324 324 323 322 322 323 322 321 320 316 315 316 318 316 315 316 316 319 326 325 317 313 312 312 313 313 314 313 313 311 311 312 313 316 315 314 316 316 317 318 316 318 316 316 318 314 316 318 317 317 315 316 316 315 315 315 315 313 312 312 312 309 309 312 309 304 303 303 302 300 300 300 299 299 299 298 297 296
319 319 319 319 319 319 320 321 323 325 324 324 323 322 322 322 322 321 319 317 315 316 318 316 315 316 317 320 327 324 315 312 312 312 311 313 314 313 313 312 311 311 312 316 316 313 313 313 313 315 317 316 314 315 316 314 315 316 314 315 315 315 314 314 314 314 314 312 312 312 312 310 309 313 309 303 303 302 301 301 300 299 299 299 300 299 297 296
319 320 320 319 319 319 319 321 323 324 324 323 322 321 321 321 321 320 319 317 315 317 318 316 315 316 318 321 324 320 313 312 313 311 311 312 313 313 313 313 312 311 311 314 315 313 311 311 312 317 317 314 314 315 314 313 313 314 313 314 316 315 314 314 314 314 313 312 314 313 312 311 310 311 306 303 303 302 301 301 300 300 299 299 299 300 298 296
319 319 319 319 319 319 320 321 323 324 324 323 321 320 319 319 319 319 319 317 316 318 317 316 315 315 320 322 318 315 313 314 313 311 310 310 311 314 315 314 313 312 311 312 314 313 311 310 312 316 315 314 315 313 312 313 312 313 313 313 316 315 316 316 313 314 313 313 315 312 313 313 309 307 304 303 302 302 301 301 300 300 300 299 300 300 299 296
319 319 319 319 319 319 320 322 323 324 324 323 321 320 319 318 318 318 317 316 317 318 316 316 315 316 321 320 315 313 314 314 313 311 310 309 310 314 316 314 313 312 311 311 312 311 310 311 312 314 314 314 314 312 313 314 313 314 312 316 318 316 323 320 313 315 312 313 315 311 314 313 307 305 304 303 302 301 301 300 300 300 300 300 300 300 299 297
318 319 319 319 319 320 320 322 324 324 324 322 321 320 318 317 317 317 317 315 317 318 316 317 316 317 321 319 315 314 314 315 314 312 310 310 310 312 314 312 312 313 312 312 312 312 311 311 312 315 315 314 313 312 315 316 316 315 313 323 325 317 323 320 311 315 313 313 314 311 316 313 307 306 304 303 302 301 300 300 300 300 299 299 299 299 299 298
318 319 319 319 320 320 321 323 324 324 324 321 321 320 317 317 317 317 316 314 316 317 317 320 317 316 321 319 315 315 315 316 315 313 311 311 309 310 310 309 312 314 314 313 312 311 311 312 314 314 314 313 312 313 320 324 326 323 316 321 324 316 317 315 310 314 314 313 312 311 314 312 308 307 304 302 301 300 300 299 299 299 299 299 299 299 299 298
318 318 319 319 319 320 321 323 324 324 323 321 321 319 316 317 317 317 316 313 315 318 316 319 318 317 319 316 315 317 316 316 315 313 312 311 309 310 309 310 313 312 313 313 312 313 312 313 314 312 313 312 313 319 322 326 329 330 323 318 318 315 312 313 313 313 314 313 312 311 311 311 310 307 304 302 301 300 299 299 299 299 299 299 299 299 299 299
318 318 319 319 319 320 321 323 324 324 322 320 319 318 316 316 317 317 317 314 316 319 318 320 320 318 318 316 316 318 316 315 315 313 312 311 309 310 310 311 311 310 314 314 313 314 312 315 317 318 321 314 314 322 318 318 322 322 322 317 316 316 311 312 311 312 314 313 312 312 311 311 310 306 304 302 300 300 299 299 298 298 299 299 300 300 299 299
318 319 319 319 319 319 321 323 324 323 320 318 318 318 314 314 318 317 314 313 317 319 319 321 320 318 318 318 318 317 315 314 313 312 312 311 309 310 311 312 312 314 317 320 320 317 315 321 325 325 328 315 310 318 314 317 321 315 316 315 314 315 311 310 310 311 314 312 312 312 311 312 308 305 305 302 300 300 299 299 298 298 299 300 300 300 300 299
319 319 318 319 319 319 321 322 324 322 316 314 316 315 311 316 324 322 316 316 317 317 318 320 319 319 319 319 318 315 314 313 313 314 312 310 309 311 312 312 317 322 322 321 321 321 319 321 326 326 324 312 308 314 313 315 315 310 312 313 313 313 311 310 310 311 311 310 313 313 312 312 309 306 304 302 300 300 299 299 299 299 299 300 300 299 298 297
319 319 319 319 319 319 321 321 323 320 312 312 312 311 311 314 318 317 318 319 314 312 318 320 316 317 317 316 316 312 313 316 313 313 311 309 311 312 313 312 318 327 323 318 319 323 320 318 329 330 317 309 309 311 312 312 310 310 312 312 313 313 312 311 311 311 309 309 314 314 311 310 309 308 304 301 300 299 299 299 298 299 300 300 300 299 297 296
318 319 319 319 319 320 320 320 321 317 313 313 310 312 312 310 312 311 313 318 316 313 317 317 315 316 315 314 314 310 315 318 314 315 312 309 313 313 314 314 317 322 322 322 325 326 322 321 328 324 312 309 310 310 311 311 311 312 312 312 313 315 314 313 312 311 308 309 313 313 310 308 309 308 304 301 300 299 299 298 298 299 300 300 299 298 297 296
316 319 319 319 319 319 319 319 319 314 315 312 306 308 308 307 310 310 312 320 321 318 318 319 319 318 316 314 313 311 316 317 315 318 312 309 314 314 315 316 317 319 318 320 321 318 321 325 323 316 311 309 310 312 312 310 311 313 313 313 315 316 316 315 314 313 310 309 311 310 308 306 307 307 303 300 300 300 299 300 300 300 299 299 299 298 297 296
314 318 320 319 318 319 319 320 316 311 315 313 306 306 307 308 310 311 316 324 323 320 319 319 318 320 319 314 311 313 315 315 313 314 310 310 313 312 313 315 315 318 316 315 316 315 317 320 316 313 313 311 311 314 314 313 315 318 317 315 315 315 315 315 314 313 310 310 311 308 307 308 308 306 303 300 300 300 300 300 300 300 300 300 299 298 298 297
314 318 320 319 318 319 318 319 314 309 315 315 307 305 306 309 311 311 317 322 322 322 319 316 318 321 316 311 313 314 313 313 312 310 308 308 311 311 312 312 313 320 319 312 311 314 313 313 313 314 315 315 316 319 320 318 317 319 321 319 318 316 314 316 315 312 310 311 312 308 308 311 309 306 303 300 299 299 299 298 298 298 299 299 298 297 297 297
313 317 320 318 318 318 318 320 313 308 316 318 310 303 303 309 310 310 317 319 321 324 320 317 319 319 313 312 315 315 315 315 310 307 307 307 308 310 313 315 314 317 315 310 313 315 311 311 314 317 319 318 317 320 323 320 315 316 319 319 317 312 312 314 313 311 311 312 310 306 308 309 307 306 303 299 299 299 298 298 297 297 297 297 297 297 296 295
312 316 320 318 315 315 319 319 311 310 318 318 309 302 304 309 308 310 319 321 320 324 324 319 317 317 315 314 313 314 319 317 309 306 307 308 307 308 314 318 316 315 311 313 323 323 312 310 315 316 317 317 316 317 320 318 317 318 316 314 311 309 311 312 311 310 310 309 308 307 307 307 307 307 303 299 300 298 297 297 296 296 297 297 297 297 295 294
312 315 319 317 310 308 313 312 307 311 315 310 305 303 307 310 309 314 320 315 317 323 324 318 313 313 315 312 311 315 316 314 314 311 306 306 308 308 314 316 316 315 311 314 325 324 313 312 318 317 316 318 319 319 319 317 316 317 315 310 307 308 310 310 310 310 308 306 307 308 308 307 309 309 303 300 300 299 297 296 296 295 296 296 296 296 294 294
313 314 318 317 310 305 308 306 306 310 309 304 303 305 307 308 311 322 320 312 317 323 319 316 314 315 316 314 313 316 313 313 316 312 305 306 307 307 311 312 310 311 311 314 318 317 313 313 318 319 317 318 319 320 319 317 314 313 311 310 309 310 310 308 308 307 305 307 308 308 308 307 309 310 305 301 302 301 297 295 295 295 295 295 295 295 294 294
312 315 317 317 315 309 306 306 307 307 303 301 303 306 309 312 318 325 318 313 320 323 316 315 317 318 317 316 316 316 314 314 313 309 308 307 307 307 307 307 308 311 314 314 314 313 311 309 311 313 314 316 316 314 314 315 312 309 308 310 312 313 310 308 308 307 307 311 310 309 309 307 307 309 305 302 303 302 298 295 295 294 294 295 295 295 294 293
313 316 317 319 317 307 305 311 312 306 300 301 304 307 313 320 323 323 317 312 317 320 316 317 318 317 316 319 321 316 313 315 313 310 312 310 309 310 309 311 317 321 322 320 319 317 311 309 312 311 311 313 312 310 311 314 311 309 312 312 312 317 314 310 312 310 310 315 313 307 307 305 306 308 305 302 302 301 298 295 294 294 293 294 295 295 294 294
314 317 317 320 316 304 304 314 314 307 302 302 305 311 320 321 319 323 325 318 316 318 320 321 319 319 319 320 324 321 316 319 315 312 318 316 313 316 317 320 324 325 326 325 324 321 317 316 314 310 310 311 312 311 313 314 311 312 315 311 310 317 318 315 316 312 310 315 310 303 304 303 303 306 306 304 301 298 297 295 293 293 293 294 295 294 295 295
315 317 317 319 317 310 307 310 309 304 301 303 309 317 323 320 320 325 326 321 316 318 323 324 322 324 322 320 327 327 319 323 320 313 318 317 315 322 324 322 322 321 321 320 320 321 322 320 313 309 311 312 312 311 315 318 312 311 314 312 311 315 315 315 317 315 315 316 309 300 302 304 304 305 304 301 298 296 295 294 293 293 293 294 294 294 295 294
314 316 317 318 318 316 314 312 309 302 301 308 313 318 320 320 325 325 323 323 320 319 322 324 322 322 321 321 328 327 319 326 324 314 317 317 316 324 323 318 318 318 318 317 317 317 320 324 319 314 313 311 311 313 319 321 314 311 313 314 313 313 315 317 317 317 316 316 309 301 303 308 307 303 299 296 294 294 293 293 293 294 294 294 294 294 294 293
314 316 316 317 318 319 317 316 312 302 305 312 311 315 318 319 324 323 323 327 323 320 320 321 322 321 323 326 329 325 318 323 322 314 317 318 318 325 326 322 319 316 317 319 319 315 316 324 318 308 307 309 310 311 312 314 313 311 309 309 310 311 314 313 311 311 309 309 306 303 306 308 302 297 295 294 293 293 293 293 293 294 294 294 294 293 293 292
314 315 315 315 317 319 318 319 312 302 307 310 305 311 314 316 325 325 324 325 323 323 320 319 322 322 325 328 327 323 317 319 320 315 318 318 317 322 324 326 322 314 314 320 322 317 317 322 313 304 304 305 304 305 305 310 314 310 306 309 310 308 306 306 307 308 306 307 306 304 306 305 300 297 294 293 293 292 292 293 292 293 293 294 294 293 292 292
314 314 313 314 316 316 317 318 310 304 309 308 306 312 310 313 324 325 323 320 319 324 320 319 322 321 326 327 325 324 317 317 318 316 320 319 315 317 317 318 319 314 313 317 319 319 318 318 311 307 308 302 299 302 303 305 308 307 308 311 309 305 303 304 308 308 305 306 307 305 304 303 303 302 295 292 293 292 291 292 292 293 293 293 293 292 291 291
313 312 313 315 315 315 317 314 307 307 311 307 307 315 313 311 315 317 321 319 317 320 318 319 320 319 325 325 324 325 318 318 319 316 321 321 315 317 317 315 315 313 313 312 314 318 317 317 312 306 307 304 300 304 305 303 303 305 307 306 305 307 306 305 307 308 307 308 309 307 305 302 303 302 295 293 293 292 291 292 292 293 293 293 293 292 291 292
313 312 313 315 314 316 316 312 307 310 312 308 309 315 315 312 311 314 321 320 318 319 318 320 318 315 322 322 322 324 317 319 320 315 318 319 316 318 316 316 315 310 310 311 313 316 314 317 317 305 302 304 302 305 309 306 302 301 302 302 303 304 305 304 305 306 307 309 309 309 307 304 304 301 296 294 293 292 292 292 293 293 292 293 293 292 292 292
311 313 315 314 314 316 314 311 310 311 311 311 312 314 315 314 312 313 317 318 319 319 319 322 319 315 319 320 321 322 317 320 321 317 317 317 317 318 314 315 316 310 309 311 311 312 311 315 317 306 301 304 305 305 308 308 304 300 300 300 300 300 303 305 303 302 304 306 307 307 307 306 304 301 297 296 294 293 292 293 294 293 292 293 292 293 293 292
312 314 314 312 312 313 311 311 312 311 311 314 314 314 315 315 314 314 314 315 316 316 316 321 320 317 316 317 319 320 318 320 319 316 318 317 315 317 315 315 316 311 309 310 310 311 312 314 314 309 304 306 309 306 305 306 307 304 301 301 301 300 303 304 303 302 302 303 305 305 306 306 303 299 297 296 295 294 294 295 294 292 292 292 292 292 292 292
313 314 312 310 310 311 311 314 315 313 314 316 315 315 315 314 316 316 315 314 315 314 314 316 318 318 316 316 319 320 320 322 321 318 319 318 315 317 316 313 312 310 310 312 311 311 313 312 310 309 308 308 307 303 301 302 303 302 302 303 303 301 301 303 305 305 302 300 301 302 303 304 301 297 296 295 295 295 295 295 293 292 292 292 292 292 292 291
314 313 310 309 310 310 313 318 317 315 316 316 316 317 316 315 316 317 316 316 315 314 314 314 314 315 315 315 316 319 320 321 322 320 319 320 317 314 312 309 307 310 311 310 308 307 309 310 309 310 312 311 304 297 297 298 298 299 300 300 301 300 301 302 303 305 305 302 300 300 301 301 298 296 296 295 295 295 294 293 292 292 292 292 292 292 292 291
314 312 309 308 308 310 314 318 318 317 317 316 316 317 316 315 316 316 316 316 316 316 314 313 313 313 315 315 313 316 318 316 317 318 318 322 316 306 305 308 306 308 310 310 310 310 310 311 312 311 313 314 308 301 300 299 296 296 298 299 299 299 300 300 300 302 302 301 300 301 302 301 298 297 296 294 294 294 293 292 292 293 293 292 292 292 292 291
313 313 311 308 307 309 313 316 316 316 316 316 317 316 316 316 316 316 317 315 315 317 315 314 316 314 314 316 313 314 316 314 315 316 316 320 313 301 301 305 306 307 309 310 310 310 311 312 311 312 314 315 314 311 310 305 298 296 297 298 299 299 299 299 299 300 300 300 300 300 300 300 298 297 296 295 294 293 291 291 292 292 293 292 292 292 292 290
313 314 312 309 307 308 310 311 312 314 316 316 317 316 316 316 316 316 318 316 314 315 315 316 317 315 314 315 314 314 315 313 314 315 315 319 312 301 299 302 304 306 306 306 309 310 312 311 308 310 314 313 314 313 310 305 301 301 301 298 297 299 299 299 299 300 300 300 300 299 299 300 299 298 297 295 295 294 291 291 292 292 292 292 292 292 291 290
313 313 312 311 310 309 310 311 311 313 314 315 316 316 316 316 315 316 318 317 315 314 314 315 315 314 315 314 314 314 314 313 314 313 315 319 311 300 297 299 301 303 302 304 307 309 311 310 306 308 310 310 312 312 307 304 303 304 305 301 298 298 299 300 300 299 299 299 300 300 300 300 300 299 298 296 295 294 292 291 292 292 292 292 291 291 291 290
313 313 312 312 312 312 311 312 312 312 314 314 314 314 315 316 315 316 317 316 316 315 315 315 315 314 315 315 315 315 314 314 315 313 313 317 312 302 299 300 300 300 301 302 303 305 309 309 307 307 307 307 308 309 307 306 304 304 304 302 299 297 298 299 299 298 298 299 300 300 300 300 299 298 298 296 296 296 294 292 292 292 292 292 291 291 290 290
313 314 313 311 311 312 312 312 312 312 313 314 314 314 314 315 315 315 316 316 316 315 315 316 316 314 315 315 315 315 314 314 316 315 313 315 313 308 306 306 303 299 300 301 301 303 307 308 307 307 307 307 307 306 306 305 304 304 303 301 299 297 297 297 297 297 297 297 298 298 298 298 298 298 297 297 297 297 295 293 292 292 292 292 292 291 290 290
313 314 314 312 310 310 312 311 311 312 313 313 314 314 313 313 314 314 315 317 317 316 315 316 316 316 315 315 314 314 315 315 316 316 315 314 313 310 310 312 307 300 298 299 301 303 305 307 307 306 307 307 306 305 304 303 303 304 303 302 300 298 298 297 296 296 296 297 296 296 297 297 297 297 297 297 298 296 293 292 292 292 293 293 292 290 290 290
312 312 312 313 311 310 311 311 311 312 313 313 313 313 313 314 314 313 315 316 316 316 316 315 316 316 315 315 315 314 314 314 315 316 315 316 315 312 311 312 309 303 299 298 301 304 304 305 305 304 307 309 305 303 302 301 300 301 301 301 300 299 299 298 297 297 296 296 296 296 297 297 296 297 298 297 297 295 293 293 292 292 293 292 291 291 290 290
312 312 312 312 312 311 311 311 311 312 313 313 312 313 313 313 313 314 315 315 315 316 316 315 315 315 315 315 315 314 314 315 316 314 313 315 315 313 311 309 308 306 300 297 301 303 302 304 304 304 307 307 301 299 299 299 301 304 303 302 300 299 299 299 298 298 297 296 297 297 297 297 297 298 298 297 296 294 293 293 292 292 293 292 291 291 291 290
Wind_Speed
21 22 23 24 25 26 26 27 27 27 27 27 27 28 29 30 29 27 26 26 26 25 17 10 5 7 9 11 11 12 13 13 16 19 15 9 14 15 13 12 12 13 11 9 11 13 12 8 7 9 4 3 1 0 2 2 1 4 4 3 2 1 1 2 1 1 3 2 0 1 3 6 2 2 1 6 13 11 11 12 10 12 12 13 16 20 23 25
20 21 22 23 24 25 25 26 26 26 26 26 26 27 28 29 30 27 26 25 25 24 16 10 6 7 10 10 10 10 9 7 13 16 12 13 17 15 12 11 10 11 11 10 12 13 9 6 10 11 5 1 2 1 3 2 2 3 2 2 2 4 2 2 4 2 3 4 1 2 4 6 2 2 2 5 6 8 11 9 9 11 11 13 18 21 23 23
19 20 21 22 23 24 24 25 25 25 25 25 25 26 27 28 29 28 26 25 24 22 15 10 7 4 11 10 9 7 4 3 7 8 11 17 15 13 11 10 10 11 11 11 12 12 9 9 12 8 3 2 2 1 2 2 2 1 3 2 5 4 2 1 5 4 3 5 2 4 3 5 2 2 3 6 7 8 8 5 7 9 8 9 11 17 20 21
19 20 21 22 22 23 24 24 24 24 24 24 24 25 25 26 28 29 27 25 24 21 15 9 8 2 9 11 8 3 2 5 4 5 12 15 12 11 9 10 11 11 12 13 12 12 11 12 11 4 0 3 3 2 1 1 2 1 2 2 7 2 3 3 4 5 5 6 3 2 4 4 3 4 3 8 8 7 5 4 8 10 8 8 7 12 16 18
18 19 20 21 22 22 23 23 23 23 23 22 23 23 24 25 26 28 27 25 23 20 15 9 8 5 3 9 9 2 3 4 2 7 12 12 10 9 9 10 10 10 12 14 12 13 11 7 4 2 1 2 3 3 1 2 3 1 2 4 5 1 1 3 4 5 4 6 5 4 4 2 2 6 4 7 8 3 3 6 9 10 9 9 8 10 13 14
18 19 19 20 21 22 23 23 23 22 22 21 22 22 23 24 24 27 27 24 22 20 15 8 5 5 3 5 8 2 2 1 3 8 11 10 8 8 9 11 10 10 11 13 14 14 12 7 4 4 2 2 2 1 1 2 3 0 4 3 3 1 1 2 4 3 5 7 4 2 1 2 7 6 5 10 8 5 6 8 10 11 12 13 12 11 11 9
17 18 19 20 20 21 22 22 22 22 21 21 21 21 22 22 23 25 26 24 21 19 16 9 4 3 6 5 4 2 4 2 4 8 9 7 6 8 10 11 11 10 11 15 15 10 7 8 6 3 3 3 2 1 1 2 3 3 3 4 3 2 2 3 3 3 5 6 0 1 1 3 9 6 4 8 7 7 8 10 12 13 15 16 12 10 9 9
17 18 19 19 20 20 21 22 22 22 21 21 21 21 21 22 23 24 25 23 20 19 16 10 3 3 5 5 3 3 3 1 5 7 7 5 5 9 9 10 12 10 11 14 12 7 4 7 5 2 4 1 2 3 2 4 2 4 4 4 2 3 4 4 3 3 3 3 1 5 5 3 9 8 5 7 7 7 9 10 12 13 13 12 9 8 8 9
16 17 18 19 19 20 21 21 22 22 22 21 21 21 21 21 22 24 24 22 19 18 14 10 6 2 4 1 4 2 2 1 4 7 6 4 5 8 8 9 12 11 10 11 12 10 4 3 3 2 2 2 2 4 2 4 2 4 3 3 2 4 5 4 1 1 3 1 4 7 7 5 10 9 4 4 7 7 9 10 9 10 9 8 7 7 8 8
15 17 18 18 19 20 20 21 21 22 21 21 21 21 21 21 22 24 23 21 18 17 13 8 6 2 2 1 6 1 2 1 5 6 5 5 5 5 6 10 11 11 10 10 13 11 4 2 2 1 1 2 2 4 1 2 3 2 0 2 3 6 6 2 2 0 3 2 3 5 5 7 7 5 3 5 7 7 9 9 8 9 8 7 6 6 8 8
15 16 17 18 19 19 20 21 21 21 21 22 21 21 21 22 23 23 22 20 17 16 13 5 3 3 1 4 5 2 2 3 5 6 6 7 5 4 6 9 9 10 9 8 10 8 4 2 2 1 1 1 3 5 3 1 2 1 4 5 7 7 6 3 3 2 2 1 2 4 5 9 6 1 6 9 7 8 10 9 8 9 7 7 6 5 6 7
14 15 16 18 18 19 20 21 22 22 22 22 22 22 22 23 24 23 21 17 16 16 11 5 3 2 2 5 3 4 3 3 5 8 9 8 6 5 6 7 8 9 7 5 5 6 5 4 4 1 1 0 2 3 1 2 1 1 3 3 7 5 4 5 4 2 3 1 1 2 1 5 6 3 9 11 8 8 10 9 8 8 6 6 6 5 5 7
14 14 16 17 18 19 20 21 22 22 22 22 23 23 22 23 23 21 19 14 14 14 8 5 3 1 3 3 2 4 4 4 6 8 8 7 6 5 5 5 7 8 6 4 3 4 4 3 3 2 2 2 1 3 0 1 1 1 1 2 2 6 4 6 4 2 4 2 2 3 2 4 4 7 11 10 10 10 9 8 7 6 6 5 5 5 5 7
13 14 15 16 18 19 19 21 21 22 23 23 24 23 22 23 20 19 16 11 12 11 6 4 1 1 3 1 2 3 2 3 4 7 7 7 7 4 4 5 6 6 5 4 2 3 3 2 3 1 2 2 2 4 4 3 2 0 0 1 1 2 4 7 4 4 4 3 4 6 3 5 4 8 11 10 10 11 9 7 7 6 5 5 5 5 5 6
12 13 15 16 17 18 19 21 21 23 23 23 24 23 23 21 18 17 11 9 11 7 3 4 2 2 3 0 2 3 1 1 1 6 7 8 8 3 4 5 4 3 3 3 2 2 2 2 3 1 3 2 1 3 5 4 3 1 0 3 2 3 4 6 3 6 6 3 4 5 3 3 5 8 9 9 9 11 10 8 7 6 6 5 4 5 5 4
11 13 14 15 17 18 19 20 22 23 23 24 24 23 23 17 16 14 6 12 13 3 1 2 2 2 2 0 2 4 1 2 2 6 6 8 7 5 7 5 1 1 2 1 1 2 1 2 1 1 1 2 2 3 3 4 4 3 1 3 4 2 3 3 3 4 6 2 1 4 4 2 4 8 8 7 9 10 9 8 7 7 6 5 4 4 4 4
11 12 13 14 16 17 19 20 21 23 23 25 23 25 22 13 15 10 1 16 15 2 2 1 1 2 1 1 3 2 1 1 3 4 5 8 7 6 6 3 2 2 1 1 1 1 1 1 0 0 2 2 1 4 5 4 4 4 2 2 4 3 3 2 5 5 3 3 4 5 5 4 4 10 10 8 9 9 9 8 8 7 6 5 5 4 4 4
10 11 13 14 15 16 18 19 21 23 24 24 24 26 19 11 13 4 2 19 13 3 1 2 1 2 1 1 2 2 1 2 4 3 3 7 7 6 4 1 2 3 2 2 1 1 1 1 1 1 3 4 3 5 3 3 3 3 3 3 4 4 3 4 4 3 3 4 5 5 6 7 4 10 10 8 9 9 9 8 7 7 6 6 5 4 5 4
10 11 12 13 14 15 17 18 20 23 24 23 24 22 13 9 7 2 7 20 8 2 1 2 1 1 2 2 2 1 2 3 3 2 3 6 7 6 3 0 3 2 2 3 3 1 1 2 3 2 3 2 1 4 4 6 6 6 6 3 4 5 5 7 5 4 5 4 6 6 7 6 5 9 9 7 8 8 8 7 6 7 6 6 5 4 5 4
9 10 11 12 13 14 16 17 19 22 22 22 23 16 7 8 5 2 10 12 2 2 3 3 2 2 3 1 1 3 3 2 0 2 2 7 8 3 1 1 4 4 2 2 5 3 3 3 2 3 4 4 4 5 6 5 4 3 4 3 6 6 6 7 6 4 4 3 6 7 7 7 6 10 11 7 7 8 9 8 7 7 6 6 6 5 5 5
9 10 10 11 12 13 15 16 18 20 18 18 19 11 2 3 3 3 6 7 8 7 4 2 2 3 4 2 1 2 1 1 1 2 2 8 5 0 0 1 5 4 3 3 4 2 5 2 5 7 8 7 6 6 4 2 1 2 3 4 6 5 7 8 5 4 3 1 6 6 6 8 7 9 9 9 9 11 11 10 8 8 7 6 6 6 5 4
9 9 10 11 11 12 13 15 17 17 15 16 15 9 5 3 3 2 1 4 9 6 3 2 1 3 3 2 2 2 4 2 3 3 3 7 2 2 1 3 4 3 4 3 3 5 4 3 8 8 7 4 4 4 4 3 2 3 3 2 5 5 5 7 4 3 1 1 4 6 7 8 10 9 9 13 11 9 9 9 9 8 8 6 6 6 5 4
10 9 10 10 10 11 11 13 15 14 13 13 11 8 4 3 4 3 2 2 7 4 1 1 1 3 2 2 3 3 3 1 1 3 4 6 2 1 1 3 2 2 3 3 3 1 3 6 8 6 6 3 2 2 4 2 2 4 4 2 5 5 2 5 4 3 4 3 4 8 9 9 8 4 6 10 7 6 6 7 7 7 8 7 7 6 5 6
12 9 9 10 10 9 10 11 11 10 10 9 10 7 2 3 4 3 2 1 5 4 2 3 2 2 2 1 3 4 2 1 2 2 3 2 1 1 2 2 1 1 2 2 6 4 7 7 4 5 5 4 2 1 3 3 3 5 6 5 6 5 5 6 4 5 6 5 5 7 9 7 6 6 6 4 4 6 6 7 7 6 7 6 6 6 6 6
12 9 8 9 9 8 9 9 6 7 7 4 6 6 3 3 5 4 1 1 4 5 1 2 1 1 3 3 3 3 1 1 2 2 2 1 2 1 1 2 1 1 4 2 2 4 8 5 4 6 3 3 3 3 3 6 3 4 5 7 7 5 5 6 4 5 5 5 4 1 4 6 3 8 8 4 5 7 6 7 8 7 7 6 6 6 6 5
12 8 7 8 9 8 6 3 2 6 5 2 3 6 3 3 5 3 2 3 3 4 1 1 1 1 3 2 2 2 1 2 1 1 1 1 1 1 0 1 0 2 3 1 2 3 4 1 4 5 4 3 2 4 5 6 3 3 5 6 6 5 4 6 3 3 2 4 4 2 2 6 2 5 9 8 9 9 7 8 9 8 7 6 6 6 5 4
12 8 6 7 8 7 4 1 1 4 2 2 3 5 2 3 5 3 2 3 3 3 3 1 1 2 3 1 1 3 1 2 1 1 1 1 1 1 1 2 1 1 1 2 3 3 2 1 4 4 4 3 3 5 5 6 6 4 4 5 5 3 5 6 3 4 4 2 4 3 4 7 7 6 9 11 10 9 9 9 9 8 7 7 7 6 5 5
11 9 6 6 7 5 2 2 3 2 1 3 4 3 0 3 5 3 3 2 3 1 2 1 0 1 1 1 1 2 2 2 2 2 1 2 2 2 1 2 3 3 1 4 2 6 2 3 3 4 3 3 5 5 6 7 3 6 5 5 4 5 7 6 4 6 3 3 6 7 6 5 8 4 5 9 10 10 11 12 11 9 8 7 7 6 5 4
8 9 6 6 5 2 1 2 4 3 2 2 3 1 2 4 3 3 4 1 2 1 0 0 1 1 0 1 1 1 1 1 2 2 1 1 2 1 1 2 5 2 2 4 6 7 2 3 6 7 4 5 6 5 6 7 3 4 3 2 3 4 6 4 4 5 1 1 9 8 7 4 7 2 4 6 8 11 12 11 10 9 8 8 7 6 6 4
7 7 6 6 5 3 3 4 5 3 1 1 1 2 3 3 2 4 1 3 1 0 0 1 1 1 3 2 2 1 3 2 1 1 2 1 1 2 1 1 4 2 3 2 4 6 2 1 2 4 4 5 5 3 3 5 3 0 2 3 4 5 3 1 2 0 2 4 9 8 10 7 6 3 7 6 6 10 11 9 9 8 8 8 7 6 6 5
7 7 6 5 6 4 3 4 4 2 1 1 2 2 2 1 3 4 4 4 1 1 0 0 2 1 4 3 2 2 3 2 1 2 0 1 2 3 2 2 3 3 3 4 4 5 3 1 2 1 2 4 5 0 1 2 2 3 3 3 4 5 3 3 3 2 1 6 6 5 9 8 6 5 7 7 5 8 14 13 13 11 9 8 6 6 6 5
8 9 8 6 6 5 4 4 3 0 1 3 3 2 3 1 0 3 4 3 1 2 2 2 3 2 3 2 1 3 2 2 2 4 3 2 1 1 1 3 1 3 4 2 3 5 3 4 4 2 1 4 6 1 3 5 4 4 4 4 3 5 4 3 3 1 4 7 4 2 3 5 9 6 7 9 6 8 13 13 14 12 10 8 6 6 5 5
11 11 9 8 7 7 7 7 5 3 1 4 2 4 6 2 4 6 5 3 2 3 2 2 1 3 4 2 3 3 1 3 3 2 2 2 0 3 4 5 5 2 4 2 2 4 4 5 3 0 3 2 7 4 2 2 2 4 3 3 2 1 3 5 4 3 5 5 4 2 2 3 6 5 6 10 7 7 10 10 11 11 10 8 7 6 5 5
12 13 11 10 9 9 9 9 8 4 4 4 4 4 4 4 6 5 5 5 3 0 1 2 2 2 2 2 4 4 1 4 3 3 1 2 1 3 4 5 4 4 2 0 2 2 2 6 3 4 2 3 6 5 5 4 3 4 4 4 4 3 2 5 3 4 6 6 4 2 0 4 3 4 3 6 7 7 9 9 9 8 8 7 7 6 5 5
13 15 12 11 11 11 10 10 8 5 6 4 4 3 5 6 4 3 5 5 2 0 1 1 4 2 2 3 4 3 2 4 0 3 1 3 3 4 3 4 5 5 4 1 2 2 3 6 4 1 1 4 4 3 4 5 1 3 3 4 2 4 4 4 3 4 3 6 5 3 3 5 3 3 3 6 7 7 8 8 8 8 7 7 6 6 6 6
15 15 12 11 13 13 12 11 9 8 7 5 3 5 6 5 4 4 4 3 3 4 2 2 3 2 3 3 3 4 1 2 0 1 2 3 4 5 5 4 5 7 7 4 3 2 2 5 2 2 2 2 3 2 2 2 1 1 3 3 5 4 4 2 4 1 2 5 6 3 4 4 1 1 1 6 6 7 7 7 8 8 7 7 6 6 6 5
14 11 8 10 14 17 15 10 8 10 6 5 6 8 6 5 6 5 3 2 2 4 5 1 2 4 4 2 3 4 1 1 1 1 2 3 3 5 6 4 3 8 9 5 2 3 2 4 3 2 1 3 2 1 2 2 2 4 3 4 3 1 2 1 2 3 1 5 6 2 6 7 1 2 3 5 7 8 7 7 8 7 7 7 6 6 4 2
12 6 6 12 16 16 14 10 10 10 4 3 8 9 6 6 7 6 4 3 1 2 4 4 5 4 5 4 4 4 4 2 2 2 2 3 4 4 6 3 1 4 6 5 2 2 1 3 4 2 2 3 2 3 3 3 2 3 3 2 1 0 2 2 2 2 3 6 7 2 5 7 5 5 6 10 12 12 9 8 8 8 8 7 6 5 2 1
11 3 4 11 17 17 14 11 10 6 2 5 9 8 6 7 9 7 5 4 3 3 4 6 5 3 4 6 4 4 5 5 4 3 3 3 4 4 6 5 2 1 2 6 5 2 2 1 4 1 1 2 3 2 2 2 1 3 1 2 0 2 3 2 2 2 3 6 7 5 5 4 5 7 11 16 15 13 11 8 8 8 8 7 5 5 3 3
8 2 2 8 17 19 15 11 7 4 4 7 7 5 5 7 8 9 9 6 4 4 5 6 6 5 5 5 5 4 4 5 6 4 3 4 4 5 6 5 5 4 2 4 3 1 2 2 4 2 2 0 1 4 6 6 4 3 2 2 2 2 1 2 2 3 3 7 5 6 9 5 2 3 11 16 14 13 11 9 8 8 7 7 6 6 5 5
5 3 3 12 19 20 16 9 5 5 5 6 6 6 7 6 5 8 12 11 7 5 5 6 7 7 6 5 5 4 4 4 6 5 5 5 5 5 5 6 9 8 3 4 2 3 2 3 4 2 1 3 5 5 6 7 6 5 5 5 5 5 2 3 6 3 4 6 4 5 12 8 2 2 6 10 10 10 10 9 8 7 8 7 6 6 6 5
5 5 5 14 21 20 14 5 4 4 5 6 6 6 6 5 5 7 8 9 9 7 4 5 7 7 6 6 5 5 5 4 6 6 5 7 8 7 5 5 9 9 6 3 3 4 3 3 3 5 5 6 6 3 2 4 3 2 4 4 5 5 5 6 8 3 3 4 2 5 13 9 1 4 6 7 8 9 8 8 8 7 7 7 6 7 6 5
6 5 6 15 22 19 11 5 4 5 6 6 6 7 6 5 6 7 7 7 7 6 6 5 5 7 8 6 5 5 5 5 7 8 6 6 8 5 3 4 9 8 5 3 2 2 1 2 3 5 5 3 3 2 3 3 3 1 5 4 5 7 8 8 7 2 2 5 3 5 12 7 1 2 5 6 7 7 6 7 9 7 6 6 7 6 5 4
4 3 3 13 21 17 8 6 7 9 8 7 7 9 8 7 8 8 8 8 7 5 7 7 6 8 8 6 6 7 7 5 7 9 8 6 4 1 3 3 8 7 4 3 4 4 3 2 3 2 6 6 3 2 3 1 2 4 5 5 7 10 7 4 3 1 5 11 9 8 13 8 0 1 3 6 7 7 6 7 9 8 6 6 6 5 5 5
4 4 1 10 18 13 6 4 5 7 9 10 10 12 11 8 8 11 10 9 7 6 6 7 6 7 5 5 6 7 8 9 8 5 5 5 3 2 3 2 3 5 4 1 3 5 4 3 4 4 6 9 9 6 3 2 3 3 3 6 9 11 10 6 4 5 9 13 12 11 13 10 2 1 3 5 7 7 6 6 7 7 6 6 5 5 6 5
4 4 2 5 9 7 4 2 2 3 6 9 9 12 15 12 7 9 11 11 8 7 7 6 5 6 6 6 7 8 10 12 9 4 3 4 3 2 2 3 2 3 3 2 3 3 2 2 6 9 10 12 14 11 2 5 3 5 6 9 11 11 13 10 7 10 9 5 11 15 14 14 11 6 6 7 7 7 7 7 6 6 6 6 6 6 5 2
5 5 6 6 4 6 5 3 4 5 5 9 7 6 12 15 11 7 9 10 8 9 9 7 7 8 8 7 7 10 13 11 9 8 7 5 2 2 2 1 2 1 2 3 2 3 3 4 9 13 16 19 18 11 2 5 6 11 11 12 11 11 15 14 14 17 9 1 14 20 12 15 19 11 9 10 9 7 8 9 8 8 7 7 6 4 2 2
6 4 6 8 4 6 9 9 10 11 11 11 8 7 11 14 13 9 9 7 8 11 9 7 12 14 12 11 9 10 12 8 6 10 10 6 3 1 1 1 1 2 2 1 2 3 4 7 9 11 16 20 16 10 5 5 8 13 16 14 12 14 19 20 21 21 13 10 20 21 13 18 18 10 10 11 10 9 9 10 8 7 7 5 5 4 2 2
7 2 4 9 7 7 11 15 15 16 19 14 9 13 16 14 14 11 7 5 8 13 12 12 16 14 13 14 12 13 13 8 7 11 10 7 6 4 2 3 3 2 2 3 2 1 3 5 5 7 12 17 14 8 7 8 10 17 20 15 14 19 22 20 21 21 19 20 25 23 23 26 19 10 12 10 7 7 6 7 6 6 7 5 5 4 1 2
9 4 5 7 9 8 7 11 13 14 17 15 14 16 14 14 17 12 8 10 12 11 13 18 18 14 17 21 19 19 17 11 11 13 10 9 8 4 4 5 4 3 2 4 2 2 3 2 2 3 6 14 12 7 7 9 12 21 22 15 16 21 21 19 21 20 17 21 26 24 24 26 19 12 12 9 6 6 6 7 7 6 7 5 5 4 2 1
15 12 11 5 6 10 7 8 12 11 10 13 16 16 12 16 20 14 9 15 17 11 12 20 23 16 16 21 21 22 19 15 17 17 12 11 9 7 7 6 8 7 5 5 3 3 5 3 2 3 5 9 5 3 6 6 9 21 25 19 19 21 19 19 19 18 17 20 23 21 18 20 15 7 6 6 7 8 8 9 7 6 6 6 6 4 2 1
16 12 13 7 5 9 9 8 11 10 11 14 17 16 17 19 18 14 10 12 15 15 14 20 22 15 12 18 23 23 20 16 13 9 6 4 2 3 4 5 10 11 8 8 5 3 5 4 2 4 5 5 1 4 3 2 5 17 19 16 21 23 21 20 18 19 20 18 16 16 17 16 9 3 6 6 7 9 9 8 6 6 6 6 5 5 4 3
Wind_Direction
18 19 18 17 16 15 15 15 15 15 15 13 13 14 15 15 16 18 17 13 8 5 11 30 79 155 153 139 122 108 93 73 56 52 56 21 350 346 341 337 343 351 355 357 5 5 358 353 315 326 330 268 24 181 344 23 58 49 71 69 331 244 192 222 131 129 130 112 7 34 79 110 136 326 33 67 75 93 84 73 72 68 67 72 72 65 60 59
15 16 16 15 14 13 13 13 14 13 13 12 12 12 13 13 13 15 15 12 9 7 8 21 55 162 171 151 141 121 105 69 41 45 36 357 350 346 343 349 351 354 1 8 7 1 354 343 328 344 12 303 324 23 354 351 68 73 94 65 253 216 220 191 119 71 98 132 130 29 93 100 151 241 51 72 85 92 89 80 76 71 61 60 60 60 59 58
12 13 13 13 12 12 11 11 12 12 12 11 11 9 10 11 10 11 13 12 9 9 9 10 28 157 181 168 156 135 116 59 32 24 357 348 350 351 357 6 5 3 2 359 350 341 321 298 312 331 5 324 292 79 15 346 38 87 94 40 252 230 277 357 90 100 124 130 90 360 75 86 328 312 92 103 83 65 82 97 94 87 76 65 53 56 57 55
8 9 10 11 10 10 9 9 9 10 10 9 8 6 6 7 7 7 9 11 9 9 10 6 13 60 188 186 168 147 65 53 30 327 341 349 357 4 16 19 18 14 1 357 345 335 318 291 296 306 57 324 308 64 44 281 32 53 110 190 243 277 343 332 68 104 108 97 86 357 51 61 358 19 93 124 85 51 67 95 110 110 102 88 65 60 59 58
6 6 7 7 8 8 7 7 7 8 8 7 6 3 1 3 3 3 4 8 9 9 9 8 13 27 174 196 193 189 37 51 331 326 348 359 11 14 23 25 24 18 10 10 1 1 357 314 302 356 74 329 335 35 324 259 80 29 250 214 238 28 327 295 66 83 82 70 55 58 62 53 52 34 46 105 99 102 108 98 106 108 108 101 89 74 64 61
2 2 4 3 4 5 4 5 4 6 6 5 3 360 358 358 360 0 360 3 7 8 4 5 12 27 68 179 199 211 68 122 310 346 356 6 19 18 27 27 27 23 18 16 13 20 17 3 21 26 16 347 322 53 243 287 79 342 286 259 265 47 254 301 58 64 80 76 44 79 126 100 89 60 43 83 101 129 118 107 104 102 103 99 89 77 65 58
357 358 360 360 1 2 2 2 2 3 4 3 1 358 355 353 355 356 356 358 3 6 2 358 8 66 85 109 161 69 80 165 321 352 1 13 16 19 31 25 25 29 26 22 19 21 18 24 28 13 16 360 330 29 201 338 77 137 271 274 276 323 302 302 48 61 95 102 188 69 65 133 116 108 76 88 109 120 109 102 99 99 98 92 83 77 72 63
354 354 356 357 358 358 359 359 0 1 1 1 359 357 352 349 350 351 352 353 357 3 360 352 354 141 116 90 109 44 41 255 322 359 10 13 8 18 28 22 23 28 34 31 26 21 21 37 17 3 41 15 354 348 337 3 20 162 228 265 277 307 291 286 26 56 104 115 72 47 33 152 134 117 102 115 130 120 112 103 97 96 91 88 88 86 78 65
352 351 352 354 355 356 356 356 358 358 359 358 357 355 350 347 346 346 347 348 352 358 357 349 343 196 196 75 95 56 309 247 354 5 10 12 12 13 17 26 23 23 38 33 28 33 43 51 360 10 49 258 338 335 10 40 304 205 204 262 303 294 296 293 306 99 149 108 48 52 49 115 129 107 91 144 147 129 115 106 101 96 91 94 96 95 87 76
351 350 349 350 352 353 353 354 355 356 356 355 354 353 349 344 342 341 343 345 346 352 356 349 350 33 199 102 81 68 249 87 23 10 16 18 9 358 14 29 22 24 43 37 34 39 61 86 305 244 197 251 329 298 221 115 244 236 339 307 306 283 296 296 236 263 156 140 73 90 104 151 157 106 120 188 166 137 114 107 107 101 104 107 100 100 98 94
351 349 347 348 349 350 351 352 352 353 354 353 351 350 347 341 338 338 338 342 342 345 353 349 343 18 86 96 91 182 197 77 35 27 28 24 14 360 18 26 19 26 42 51 50 41 51 52 325 255 170 284 319 291 250 238 253 356 15 340 313 288 293 280 236 270 187 183 104 123 146 172 195 84 157 175 164 140 121 116 118 114 120 115 108 110 103 100
349 348 346 346 347 348 349 349 350 351 351 351 349 348 346 339 335 334 334 340 340 339 350 352 318 304 62 78 104 164 135 76 53 37 25 24 20 10 21 22 16 23 32 61 66 30 26 16 26 89 241 327 319 309 239 287 314 36 51 346 313 333 319 266 238 221 176 235 348 99 104 182 209 191 155 157 150 137 124 126 128 126 135 129 126 120 97 90
347 347 345 344 345 346 347 347 348 349 349 349 347 347 344 338 334 331 333 342 342 340 348 358 323 271 66 73 140 130 104 68 56 40 30 24 16 16 23 13 8 15 22 52 69 21 9 358 68 156 266 78 276 296 161 309 12 325 87 145 326 12 324 256 224 171 164 207 39 79 306 261 215 162 153 155 148 135 128 136 136 134 141 138 136 121 100 84
344 344 343 342 343 344 345 346 347 346 347 347 345 345 342 338 333 329 335 348 347 342 349 17 16 36 69 130 187 125 96 78 50 26 32 28 20 21 5 352 348 357 13 43 60 31 22 20 75 123 280 150 224 313 341 343 33 328 201 108 89 98 284 268 208 155 170 224 87 99 257 256 184 160 162 163 151 141 140 147 145 146 144 135 134 120 116 89
340 341 342 341 340 342 343 344 346 345 345 345 345 343 342 337 330 331 343 2 357 348 11 53 60 59 74 49 200 157 127 135 16 2 19 22 21 9 329 326 313 341 22 48 42 6 37 63 78 78 280 251 74 360 333 334 1 21 184 316 328 173 264 290 230 169 179 239 100 117 258 245 182 184 176 164 153 144 145 157 154 149 143 137 138 117 113 95
335 339 340 339 339 341 342 342 344 343 343 345 344 343 342 333 325 332 359 10 357 314 163 72 88 87 98 359 164 159 176 202 299 346 3 7 12 355 329 325 296 63 58 70 18 331 44 76 95 126 306 331 68 72 12 5 344 348 97 264 288 276 291 310 283 217 180 191 161 187 223 219 191 196 189 172 158 148 146 157 153 146 144 136 133 118 113 110
330 334 337 338 338 339 340 341 342 343 343 344 344 344 341 325 323 324 2 1 354 214 153 69 180 82 103 117 141 179 219 214 302 319 345 352 352 343 331 335 84 63 73 135 6 356 79 77 233 335 38 19 77 88 43 5 319 329 8 285 281 299 305 303 304 289 189 181 232 223 227 252 203 180 188 181 160 150 150 158 154 151 147 138 138 130 135 143
325 328 334 336 336 338 340 340 341 342 342 344 347 342 333 320 326 289 279 349 350 165 107 348 18 56 259 252 177 211 241 265 294 284 326 341 333 325 315 325 47 20 22 61 15 37 60 360 54 39 14 7 34 77 53 285 239 255 275 283 294 301 286 263 274 264 194 196 235 239 254 269 205 174 187 182 163 153 157 162 157 153 149 149 149 140 152 158
318 325 330 333 336 337 340 340 340 343 343 345 348 343 333 340 339 223 345 353 2 146 312 275 52 103 245 256 204 284 298 272 289 247 307 335 320 304 270 41 38 43 50 28 345 338 112 24 33 17 332 330 74 124 184 223 195 214 240 227 259 283 278 261 259 241 185 186 241 238 249 259 193 187 198 183 163 154 160 162 155 158 154 151 153 152 161 166
313 323 326 331 335 335 339 341 339 344 348 350 354 354 354 5 2 312 348 350 294 251 297 219 200 247 276 281 221 316 295 254 227 199 294 322 311 302 171 99 37 42 54 341 305 295 92 61 329 251 226 207 207 205 202 208 191 215 253 255 256 263 272 271 271 259 168 164 250 234 239 253 209 202 202 181 159 158 165 167 165 162 157 155 156 161 162 170
307 318 322 328 331 334 339 340 339 345 352 358 9 25 63 36 27 314 331 314 268 276 289 240 201 251 264 241 250 353 40 170 284 225 316 322 307 181 171 92 45 11 307 286 299 344 67 67 251 218 202 199 212 221 194 184 220 241 246 268 278 260 259 268 253 227 163 158 268 248 253 262 243 225 198 170 169 176 177 171 170 164 160 164 158 166 168 162
301 310 318 324 328 332 336 339 339 343 351 4 29 70 119 111 122 216 277 304 285 274 279 304 323 278 266 228 221 78 80 62 300 266 321 340 346 180 285 67 64 316 301 343 17 7 16 259 244 216 192 198 224 213 172 185 220 240 255 280 284 263 267 282 255 207 169 323 268 264 268 259 253 243 191 180 183 183 182 168 166 162 157 168 166 172 169 142
291 302 313 318 325 328 333 339 337 341 357 17 48 83 117 138 160 186 158 297 295 288 241 232 226 256 263 245 210 138 93 116 232 273 322 356 7 180 108 70 23 283 328 29 108 31 314 252 237 197 167 178 251 217 159 190 247 238 245 254 265 262 269 281 279 306 321 297 265 274 277 257 249 249 186 191 180 153 167 159 159 162 159 174 175 168 156 154
286 298 309 314 321 323 328 331 333 347 2 30 61 69 96 156 164 157 140 273 292 293 228 214 210 206 204 203 183 144 118 206 169 245 311 26 115 173 138 139 20 342 243 158 147 185 258 251 196 145 152 162 204 285 151 179 264 253 225 217 244 251 233 240 276 329 328 310 285 285 289 264 214 197 190 186 140 141 157 150 154 169 171 169 157 160 163 165
285 294 306 313 316 319 324 321 335 5 354 15 51 46 75 160 166 143 65 8 301 297 268 232 258 210 187 145 159 163 153 265 171 208 309 64 165 196 137 164 89 261 233 200 165 236 259 256 132 136 162 132 161 248 199 181 230 282 238 215 220 213 228 258 321 355 337 303 286 308 306 285 198 179 189 166 153 169 170 163 166 178 183 165 147 166 174 171
288 291 308 320 314 314 318 308 354 5 341 318 16 21 52 180 178 154 65 46 299 277 165 185 278 173 182 153 162 149 58 306 240 197 356 42 201 180 87 279 61 244 215 167 309 266 255 308 90 132 157 126 178 253 233 177 156 282 245 189 174 172 223 266 304 345 283 263 265 133 257 282 275 178 193 177 174 186 184 180 180 185 187 170 165 170 165 178
294 292 307 327 323 318 309 234 303 338 311 278 340 2 7 193 185 188 51 29 289 237 132 260 303 142 177 187 139 136 169 274 348 338 168 140 294 126 184 269 13 276 208 82 339 268 193 57 56 96 122 157 234 259 231 159 138 248 234 149 151 192 244 254 241 240 241 281 290 234 205 266 277 228 195 172 176 195 194 192 191 191 186 170 171 168 159 179
292 293 302 332 331 321 295 221 246 256 222 291 333 356 335 175 176 160 71 13 274 153 106 273 158 133 175 107 81 131 213 201 122 287 209 153 270 56 57 235 171 233 240 113 265 270 195 160 195 157 125 205 228 228 194 144 150 248 213 164 194 222 242 247 232 245 265 11 288 238 175 244 270 248 168 160 180 207 201 195 193 187 181 168 167 170 164 177
281 290 296 326 329 298 260 252 240 234 230 302 351 54 144 154 162 94 77 256 267 94 49 25 112 258 95 84 312 203 233 216 155 254 354 122 244 58 53 213 151 210 270 153 215 261 238 188 193 155 157 223 224 219 176 147 201 245 187 209 270 258 252 239 230 255 357 319 261 234 166 216 265 227 138 160 204 218 202 189 190 184 175 167 166 170 168 171
270 281 290 316 320 276 270 273 235 214 244 319 63 128 136 136 113 71 69 243 258 233 203 89 180 201 102 98 288 208 184 236 165 66 25 78 312 13 118 161 96 116 303 307 243 261 281 230 176 146 185 202 178 193 174 159 199 180 55 344 328 298 275 184 211 251 56 256 256 219 181 202 267 241 166 179 216 203 182 174 184 182 169 167 169 165 165 165
253 265 276 295 310 291 267 267 223 172 55 126 133 125 108 50 82 111 213 241 257 254 127 161 247 125 118 148 245 209 183 244 191 122 140 161 2 11 49 11 36 54 346 330 296 299 330 300 252 222 203 130 112 88 332 37 56 69 60 28 345 312 345 33 359 56 150 254 261 220 192 195 234 243 195 212 234 176 171 175 177 173 166 168 169 165 165 164
244 260 270 273 291 277 245 253 246 221 76 155 145 86 84 42 324 181 229 287 307 223 169 188 223 180 158 147 234 225 200 250 205 156 173 162 171 242 175 205 187 10 325 281 304 322 300 244 252 318 297 129 113 63 332 359 41 82 79 59 360 320 350 353 310 218 221 249 256 187 157 208 236 246 211 215 224 178 170 170 166 161 161 166 165 164 166 165
250 263 268 261 268 269 260 264 267 267 180 161 138 60 83 131 229 216 227 272 247 209 144 128 154 141 135 116 264 235 177 242 220 171 182 143 180 270 255 215 162 147 265 240 340 321 303 296 290 316 293 168 140 155 241 296 120 140 134 125 162 310 328 292 271 272 270 270 258 136 75 271 263 277 221 195 185 163 150 146 152 152 154 163 162 162 168 176
256 265 268 259 256 262 265 268 272 252 191 157 101 75 113 189 238 228 223 238 239 251 69 110 102 88 120 168 239 209 169 260 213 140 169 94 77 268 269 250 174 152 206 327 325 228 245 301 253 184 242 176 169 187 176 150 156 187 164 142 169 171 223 265 250 256 280 288 260 193 246 238 224 307 275 157 134 127 128 133 140 145 153 155 154 158 169 192
255 263 269 264 255 255 257 264 267 222 181 144 95 133 181 207 236 231 227 235 234 88 355 58 93 93 267 275 267 227 213 268 221 105 174 166 180 203 204 225 194 153 133 142 264 193 202 259 244 221 319 149 183 221 148 116 115 239 141 118 200 184 189 251 229 208 286 309 274 205 226 227 188 334 11 111 121 121 127 138 138 148 157 147 153 168 184 205
255 264 265 256 251 248 250 259 246 205 177 130 138 199 209 210 196 198 218 207 172 148 123 10 83 138 258 285 278 265 232 261 292 78 242 210 201 207 205 217 188 168 162 167 223 215 240 267 260 17 351 155 190 224 163 126 159 201 136 177 231 178 149 248 272 301 36 304 273 204 244 271 53 331 167 128 137 141 148 154 148 161 163 150 167 186 194 206
247 258 248 242 245 242 247 256 221 194 167 130 194 214 210 208 197 201 217 166 158 140 126 190 209 186 220 239 242 239 193 286 247 146 243 244 231 203 200 228 188 181 187 177 217 224 225 272 244 147 234 248 209 158 314 320 125 145 187 228 236 113 104 149 273 324 8 264 267 200 239 255 178 218 221 165 171 178 181 173 162 170 166 163 183 187 187 188
234 246 240 238 237 236 242 237 193 176 147 157 221 229 208 208 215 213 191 136 145 123 132 203 221 186 193 208 233 210 172 197 200 176 213 239 245 192 169 197 207 193 194 165 197 250 138 270 272 157 194 267 17 50 312 313 81 136 212 252 98 197 258 150 162 258 246 263 273 230 242 244 201 191 194 191 195 192 188 179 174 177 171 173 185 179 180 272
217 234 255 227 224 230 227 204 175 157 153 195 217 228 209 213 226 223 195 156 165 167 179 218 221 210 201 190 195 190 180 189 180 188 214 206 232 208 174 180 170 190 176 145 173 229 111 217 274 290 207 280 29 77 215 241 54 70 9 318 359 199 221 189 177 188 219 265 275 284 290 256 204 187 182 194 200 187 181 182 182 184 177 175 173 170 188 216
193 232 264 184 200 212 198 175 168 172 205 210 211 221 221 223 226 225 219 203 182 183 202 213 206 214 225 203 199 196 190 189 175 183 214 200 222 232 203 179 158 159 47 83 145 183 102 198 248 321 342 264 185 200 194 192 182 138 167 237 235 223 232 263 235 158 197 254 263 284 285 260 202 188 181 191 195 180 176 180 183 183 174 170 168 173 192 202
152 256 228 169 182 183 164 159 190 192 213 224 216 219 228 235 225 224 225 218 218 220 190 186 195 198 206 217 221 199 183 195 187 192 222 215 218 235 218 181 159 155 102 66 152 191 162 193 219 249 257 211 223 227 197 188 184 174 188 195 201 213 217 269 263 186 191 241 221 253 271 262 211 183 171 177 181 175 177 176 173 172 166 171 178 179 188 193
165 232 182 168 176 165 155 189 213 186 222 223 220 231 230 237 234 228 227 217 223 231 208 197 201 195 202 209 204 187 185 206 196 193 225 224 207 216 226 182 154 147 138 137 207 212 160 132 218 246 240 227 241 250 168 170 164 183 215 192 188 204 188 218 247 225 196 241 192 238 265 269 180 159 159 161 167 171 179 168 155 165 171 172 182 184 183 184
197 207 149 165 175 164 167 226 205 202 234 217 228 248 236 239 241 224 214 210 213 215 217 220 194 202 223 206 188 199 199 211 212 203 223 229 206 218 263 178 150 133 130 159 205 216 143 124 220 263 287 269 260 358 35 64 74 268 241 190 186 216 210 219 240 216 214 240 201 237 259 265 47 144 156 153 161 162 168 160 152 167 181 173 179 185 181 188
195 185 130 170 179 176 189 215 195 211 227 213 228 241 236 242 238 222 208 204 202 189 207 222 199 211 227 194 190 211 194 207 238 222 211 211 205 284 344 183 168 158 164 187 179 178 192 177 173 274 310 296 282 353 349 348 161 231 234 196 210 226 226 261 280 219 249 246 228 238 257 253 51 63 156 152 160 162 161 164 160 163 176 178 180 181 182 200
174 191 162 175 184 191 213 214 194 214 216 213 229 232 231 239 227 217 215 212 205 180 198 224 203 198 205 174 196 219 201 211 242 236 195 204 234 343 360 325 200 183 195 194 160 178 191 181 170 202 265 273 273 281 278 210 185 218 223 208 218 219 212 227 249 228 244 250 236 233 250 256 241 141 216 195 174 167 161 167 170 167 174 178 177 187 191 199
182 206 171 159 182 206 244 240 200 221 201 201 227 229 224 233 231 211 212 217 213 194 209 227 190 186 201 191 203 228 225 221 227 230 179 191 237 297 321 338 26 164 174 100 113 146 142 213 208 210 226 242 255 262 189 124 192 244 238 218 213 213 214 218 233 235 235 259 256 242 240 257 257 225 224 225 196 182 173 172 178 177 181 182 177 185 181 168
198 211 183 159 169 206 225 224 210 224 203 191 208 218 213 222 230 216 206 210 202 200 220 227 193 195 201 189 201 233 235 223 219 232 224 201 228 297 291 25 68 137 145 127 144 114 114 240 223 213 228 240 251 258 166 135 236 255 256 240 220 213 216 216 225 234 225 229 261 250 231 245 253 234 217 223 214 202 181 177 189 184 180 182 168 157 115 39
200 213 184 174 182 197 201 206 203 214 224 215 218 239 225 216 213 207 205 207 200 201 212 224 216 208 197 188 200 233 236 214 207 229 227 210 194 205 296 311 232 237 112 138 263 117 148 242 228 209 235 247 254 265 253 237 253 256 255 246 230 222 221 221 230 235 226 225 251 259 251 248 250 232 221 220 209 211 193 178 187 175 160 159 136 110 62 341
198 242 188 183 201 202 196 199 194 205 222 222 223 236 233 222 215 208 190 186 216 212 205 221 226 210 200 203 207 226 228 195 203 230 219 208 204 168 175 257 233 213 136 164 244 129 163 247 230 204 244 256 253 251 247 249 257 259 254 239 231 235 230 228 237 238 234 238 251 262 264 261 256 236 237 232 198 199 183 160 166 157 151 150 131 126 171 262
196 204 179 180 209 208 192 192 188 202 218 216 223 232 227 223 224 216 185 191 213 210 201 221 228 205 204 215 215 226 226 194 208 228 197 193 217 183 189 217 164 138 179 171 186 242 223 235 152 156 251 264 255 228 223 236 248 259 259 239 229 243 243 239 241 240 238 244 250 255 260 264 262 246 245 241 186 158 150 161 172 162 157 148 135 154 202 258
205 198 184 170 208 201 182 181 187 201 213 209 221 226 218 223 222 210 207 217 216 203 189 213 225 214 211 222 222 228 228 208 217 226 200 194 210 194 204 200 150 154 186 176 169 208 214 219 85 115 235 261 253 178 221 248 260 265 264 246 230 238 241 238 237 234 229 237 249 253 252 258 263 243 219 213 174 158 166 175 172 162 162 147 143 173 198 174
206 201 193 189 211 200 194 193 186 196 217 213 212 214 216 224 215 196 217 233 223 218 206 206 218 218 218 227 227 227 226 216 219 226 202 188 180 178 213 193 165 166 166 171 187 184 181 196 155 151 218 266 57 116 144 51 296 270 262 234 221 228 235 240 245 241 229 228 241 246 243 252 263 166 174 197 173 170 183 180 166 166 168 157 157 171 170 175